Location: Sawmill Trailhead
(33.5800°N, 116.4497°W)
Time: 16:47:34
(UTC-07:00)

Amateur Radio Satellites - All Passes

Search period start: 05 May 2016 16:17
Search period end: 06 May 2016 16:17
Location: Sawmill Trailhead, 33.5800°N, 116.4497°W

Satellite Date Start Highest point End Downlink Frequencies (MHz)
Time Altitude Azimuth
JUGNU 05 May 16:18:27 16:21:52 16° 169° (SSE) 16:25:18 437.505
PCSat 05 May 16:19:38 16:23:18 18° 308° (NW) 16:27:00 145.827
STARS 05 May 16:20:04 16:24:03 33° 98° (E) 16:27:58 437.465
HORYU 2 05 May 16:32:45 16:37:10 61° 75° (ENE) 16:41:34 437.375
NOAA 15 05 May 16:34:07 16:35:08 11° 62° (ENE) 16:36:10 137.62
MOZHAYETS 4 05 May 16:37:31 16:42:05 72° 102° (ESE) 16:46:39
NOAA 18 05 May 16:40:42 16:42:44 12° 62° (ENE) 16:44:46 137.9125
AO-7 05 May 16:46:02 16:53:28 37° 260° (W) 17:00:58 29.400- 29.500
CUBESAT XI-V 05 May 16:57:57 16:58:21 10° 91° (E) 16:58:45 437.345
SRMSAT 05 May 17:25:46 17:27:23 11° 163° (SSE) 17:28:59 437.500
CUTE-I 05 May 17:37:55 17:42:33 31° 70° (ENE) 17:47:12 437.470
Cosmos 2491 05 May 17:39:08 17:47:53 64° 81° (E) 17:56:31 435.465 / 435.565
BEESAT 3 05 May 17:41:02 17:44:56 68° 300° (WNW) 17:48:52 437.485
YUBILEINY 05 May 17:45:13 17:52:43 33° 86° (E) 18:00:12 435.215
KKS-1 05 May 17:50:40 17:52:07 11° 295° (WNW) 17:53:33 437.445
BEESAT 2 05 May 17:54:32 17:58:29 86° 298° (WNW) 18:02:30 435.950
STARS 05 May 17:57:10 18:00:07 18° 292° (WNW) 18:03:04 437.465
LilacSat-2 05 May 18:03:00 18:06:42 44° 75° (ENE) 18:10:24 437.200
BRITE-PL 05 May 18:04:17 18:08:57 52° 74° (ENE) 18:14:02 437.365/2234.400
JUGNU 05 May 18:05:55 18:10:12 21° 178° (S) 18:14:31 437.505
NOAA 15 05 May 18:08:54 18:14:09 82° 256° (WSW) 18:19:28 137.62
NOAA 18 05 May 18:17:09 18:22:40 78° 256° (WSW) 18:28:11 137.9125
Cubesat XI-IV 05 May 18:22:32 18:27:53 87° 74° (ENE) 18:33:14 437.490
CUBESAT XI-V 05 May 18:31:24 18:36:02 62° 285° (WNW) 18:40:41 437.345
M-CUBED/EXP-1 PRIME 05 May 18:31:57 18:36:27 45° 69° (ENE) 18:40:54 437.505
DOVE 4 05 May 18:39:24 18:43:45 29° 70° (ENE) 18:48:14 437.250
AUBIESAT-1 05 May 18:47:41 18:52:14 56° 70° (ENE) 18:56:42 437.475
GOMX 1 05 May 18:58:57 19:03:59 87° 257° (WSW) 19:09:21 467.674
CINEMA 3 05 May 19:00:44 19:03:24 15° 67° (ENE) 19:06:06 145.822/145.860
RS-15 05 May 19:05:01 19:10:45 15° 98° (E) 19:16:34 29.354- 29.394
SRMSAT 05 May 19:11:44 19:15:51 19° 172° (S) 19:19:59 437.500
Cosmos 2504 05 May 19:12:05 19:17:55 27° 86° (E) 19:23:39 435.465 / 435.565
CUTE-I 05 May 19:18:08 19:22:32 26° 264° (W) 19:26:58 437.470
STRAND 1 05 May 19:30:47 19:35:35 40° 99° (E) 19:40:21 437.568
HO-68 05 May 19:33:15 19:40:00 47° 69° (ENE) 19:46:46 435.675
CANX-2 05 May 19:37:07 19:40:54 33° 73° (ENE) 19:44:41 2200.000
Cosmos 2491 05 May 19:37:33 19:43:53 23° 278° (W) 19:50:12 435.465 / 435.565
YUBILEINY 05 May 19:40:58 19:49:10 45° 282° (WNW) 19:57:25 435.215
BRITE-PL 05 May 19:45:20 19:47:49 14° 270° (W) 19:50:23 437.365/2234.400
AIST 2 05 May 19:53:12 19:57:17 67° 299° (WNW) 20:01:25 435.215
JUGNU 05 May 19:54:42 19:58:34 18° 189° (S) 20:02:27 437.505
PRISM 05 May 20:04:42 20:07:00 14° 94° (E) 20:09:17 437.425
M-CUBED/EXP-1 PRIME 05 May 20:08:14 20:11:05 16° 262° (W) 20:13:56 437.505
CUTE 1.7 + AOD 2 05 May 20:08:48 20:12:59 73° 77° (ENE) 20:17:12 437.475
Oscar 11 05 May 20:11:12 20:12:30 11° 66° (ENE) 20:13:47 145.826/435.025
DOVE 4 05 May 20:16:55 20:21:17 28° 265° (W) 20:25:48 437.250
AUBIESAT-1 05 May 20:24:57 20:26:52 12° 262° (W) 20:28:48 437.475
FUNcube-1 05 May 20:26:20 20:28:52 15° 68° (ENE) 20:31:22 145.935
COMPASS 1 05 May 20:27:13 20:31:16 59° 76° (ENE) 20:35:21 437.405
SEEDS 05 May 20:29:58 20:34:09 86° 260° (W) 20:38:19 437.485
CINEMA 3 05 May 20:35:07 20:40:02 55° 261° (W) 20:44:57 145.822/145.860
UWE-3 05 May 20:45:27 20:49:47 41° 74° (ENE) 20:54:04 435.000/436.395/437.385
AAUSAT CUBESAT 2 05 May 20:54:38 20:58:44 77° 259° (WSW) 21:02:51 437.432
CUBEBUG 2 05 May 20:59:40 21:04:25 88° 78° (ENE) 21:09:06 437.445
SRMSAT 05 May 20:59:59 21:04:23 21° 183° (S) 21:08:48 437.500
Cosmos 2504 05 May 21:04:05 21:10:54 42° 282° (WNW) 21:17:38 435.465 / 435.565
ZACube-1 05 May 21:08:23 21:12:45 49° 75° (ENE) 21:17:03 437.345
RS-15 05 May 21:10:00 21:21:09 83° 116° (ESE) 21:33:00 29.354- 29.394
STRAND 1 05 May 21:10:47 21:14:25 20° 293° (WNW) 21:18:04 437.568
CANX-2 05 May 21:14:17 21:16:49 15° 266° (W) 21:19:20 2200.000
AO-85 05 May 21:15:57 21:20:36 74° 60° (ENE) 21:24:48 145.980
HO-68 05 May 21:21:54 21:27:49 28° 263° (W) 21:33:46 435.675
PRISM 05 May 21:38:34 21:42:23 35° 287° (WNW) 21:46:12 437.425
DELFI C3 05 May 21:40:24 21:44:17 61° 76° (ENE) 21:48:11 145.870
HUMSAT D 05 May 21:42:52 21:46:24 27° 72° (ENE) 21:49:56 437.325/437.525
Oscar 11 05 May 21:43:56 21:48:07 52° 260° (W) 21:52:20 145.826/435.025
FUNcube-1 05 May 22:00:28 22:04:44 41° 261° (W) 22:08:57 145.935
ANTELSAT 05 May 22:14:17 22:17:09 17° 95° (E) 22:20:00 437.575/2403.000
UWE-3 05 May 22:23:36 22:26:20 15° 266° (W) 22:29:03 435.000/436.395/437.385
CUBEBUG 1 05 May 22:39:19 22:41:52 15° 67° (ENE) 22:44:26 437.445
ESTCUBE 1 05 May 22:43:46 22:47:26 25° 70° (ENE) 22:51:07 437.505/2401.250
ZACube-1 05 May 22:47:25 22:49:12 12° 267° (W) 22:51:00 437.345
SRMSAT 05 May 22:49:34 22:52:54 15° 193° (SSW) 22:56:16 437.500
DX 1 05 May 22:59:40 23:03:09 24° 70° (ENE) 23:06:40 434.975-435.025
UKube-1 05 May 23:00:06 23:03:11 19° 69° (ENE) 23:06:16 .
QB50P2 05 May 23:05:31 23:07:12 12° 93° (E) 23:08:52 145.880/145.840
UNISAT 6 05 May 23:07:33 23:11:52 83° 105° (ESE) 23:16:06 437.425
POLYITAN 1 05 May 23:07:39 23:09:24 12° 93° (E) 23:11:08 437.675
POPSAT HIP 1 05 May 23:09:13 23:11:03 12° 93° (E) 23:12:52 437.405
QB50P1 05 May 23:11:46 23:13:58 14° 94° (E) 23:16:09 145.935-145.965
VELOX 1 05 May 23:14:11 23:18:18 40° 73° (ENE) 23:22:28 145.980
HUMSAT D 05 May 23:18:57 23:21:59 19° 265° (W) 23:25:01 437.325/437.525
SPROUT 05 May 23:23:39 23:26:31 18° 69° (ENE) 23:29:22 437.525
TIGRISAT 05 May 23:23:54 23:28:10 66° 283° (WNW) 23:32:21 435.000
RS-15 05 May 23:25:40 23:35:03 28° 319° (NW) 23:44:55 29.354- 29.394
PCSat 05 May 23:27:01 23:31:01 20° 53° (NE) 23:34:59 145.827
GONETS M04 05 May 23:29:52 23:37:43 37° 87° (E) 23:45:32
NANOSAT C BR1 05 May 23:43:12 23:47:00 32° 98° (E) 23:50:46 145.865
50 SAT 05 May 23:45:35 23:49:12 63° 259° (W) 23:52:49 437.505
AIST 1 05 May 23:45:58 23:50:05 46° 93° (E) 23:54:15
AISAT 05 May 23:46:26 23:50:53 78° 259° (W) 23:55:21 437.250
ANTELSAT 05 May 23:50:09 23:53:53 30° 288° (WNW) 23:57:35 437.575/2403.000
O/OREOS (USA 219) 06 May 00:08:49 00:13:15 53° 68° (ENE) 00:17:37 437.305
CUBEBUG 1 06 May 00:13:42 00:17:47 39° 261° (W) 00:21:55 437.445
ESTCUBE 1 06 May 00:20:34 00:24:08 23° 264° (W) 00:27:43 437.505/2401.250
DUCHIFAT 1 06 May 00:33:38 00:37:46 59° 284° (WNW) 00:41:52 145.980
UKube-1 06 May 00:35:14 00:39:00 29° 262° (W) 00:42:47 .
DX 1 06 May 00:35:42 00:39:13 24° 263° (W) 00:42:46 434.975-435.025
QB50P2 06 May 00:39:10 00:43:10 42° 286° (WNW) 00:47:08 145.880/145.840
POLYITAN 1 06 May 00:41:23 00:45:22 41° 286° (WNW) 00:49:18 437.675
POPSAT HIP 1 06 May 00:43:01 00:46:59 41° 287° (WNW) 00:50:55 437.405
QB50P1 06 May 00:45:57 00:49:51 37° 287° (WNW) 00:53:43 145.935-145.965
VELOX 1 06 May 00:52:29 00:54:54 14° 266° (W) 00:57:21 145.980
SPROUT 06 May 00:58:19 01:02:11 32° 262° (W) 01:06:05 437.525
Cosmos 2499 06 May 00:58:59 01:06:04 78° 94° (E) 01:13:09 435.465 / 435.565
Oscar 19 06 May 00:59:02 01:01:32 13° 93° (E) 01:04:02 437.125/150
BUGSAT 1 06 May 01:00:36 01:04:43 61° 285° (WNW) 01:08:45 437.445
DANDE 06 May 01:00:53 01:05:27 17° 71° (ENE) 01:10:21 436.750
PCSat 06 May 01:09:26 01:14:39 48° 249° (WSW) 01:19:49 145.827
JAS-2 06 May 01:13:51 01:21:23 47° 98° (E) 01:28:39 435.910
TISAT 1 06 May 01:18:29 01:22:42 70° 258° (WSW) 01:26:58 437.305
NANOSAT C BR1 06 May 01:19:47 01:22:26 16° 292° (WNW) 01:25:04 145.865
ITUPSAT 1 06 May 01:20:51 01:24:12 20° 68° (ENE) 01:27:35 437.325
GONETS M04 06 May 01:26:07 01:34:18 41° 283° (WNW) 01:42:31
AIST 1 06 May 01:26:40 01:27:56 11° 287° (WNW) 01:29:12
CUSAT 1 06 May 01:26:40 01:34:12 53° 78° (ENE) 01:42:00 437.405
SWISSCUBE 06 May 01:27:40 01:31:35 26° 70° (ENE) 01:35:30 437.505
RS-15 06 May 01:50:06 01:53:47 12° 355° (N) 01:57:31 29.354- 29.394
O/OREOS (USA 219) 06 May 01:51:08 01:52:04 11° 262° (W) 01:53:00 437.305
BEESAT 06 May 01:59:36 02:04:13 53° 74° (ENE) 02:08:50 436.000
BEESAT 3 06 May 02:02:48 02:05:42 19° 53° (NE) 02:08:34 437.485
BEESAT 2 06 May 02:17:23 02:19:57 16° 52° (NE) 02:22:31 435.950
ITAMSAT 1 06 May 02:25:08 02:28:00 15° 94° (E) 02:30:52 435.822/435.867
Oscar 19 06 May 02:36:04 02:41:09 57° 286° (WNW) 02:46:12 437.125/150
DANDE 06 May 02:41:21 02:48:41 86° 263° (W) 02:57:07 436.750
Cosmos 2499 06 May 02:56:33 02:59:55 14° 292° (WNW) 03:03:19 435.465 / 435.565
ITUPSAT 1 06 May 02:57:25 03:01:46 35° 262° (W) 03:06:07 437.325
JAS-2 06 May 02:59:13 03:06:00 33° 294° (WNW) 03:12:40 435.910
Gurwin Techsat 1B 06 May 02:59:35 03:04:55 88° 286° (WNW) 03:10:15 435.225
AO-7 06 May 03:01:09 03:05:51 16° 93° (E) 03:10:31 29.400- 29.500
SWISSCUBE 06 May 03:05:19 03:09:15 26° 263° (W) 03:13:12 437.505
KKS-1 06 May 03:05:55 03:09:50 31° 71° (ENE) 03:13:46 437.445
CUSAT 1 06 May 03:09:30 03:15:58 30° 272° (W) 03:22:36 437.405
STARS 06 May 03:13:31 03:16:36 19° 68° (ENE) 03:19:41 437.465
MOZHAYETS 4 06 May 03:35:23 03:39:39 41° 73° (ENE) 03:43:56
BEESAT 3 06 May 03:39:59 03:43:23 28° 248° (WSW) 03:46:46 437.485
BEESAT 06 May 03:40:17 03:42:15 12° 267° (W) 03:44:13 436.000
BEESAT 2 06 May 03:54:16 03:57:54 35° 247° (WSW) 04:01:31 435.950
ITAMSAT 1 06 May 04:02:40 04:07:42 52° 287° (WNW) 04:12:44 435.822/435.867
YUBILEINY 06 May 04:03:10 04:05:53 12° 64° (ENE) 04:08:35 435.215
RS-15 06 May 04:05:08 04:13:41 21° 32° (NNE) 04:22:15 29.354- 29.394
AIST 2 06 May 04:18:48 04:22:07 23° 54° (NE) 04:25:25 435.215
DANDE 06 May 04:27:10 04:30:53 14° 275° (W) 04:34:47 436.750
HORYU 2 06 May 04:29:03 04:31:43 16° 95° (E) 04:34:22 437.375
KKS-1 06 May 04:43:10 04:46:23 19° 265° (W) 04:49:38 437.445
Cosmos 2491 06 May 04:44:51 04:48:00 12° 77° (ENE) 04:51:10 435.465 / 435.565
ISS 06 May 04:46:33 04:49:12 23° 129° (SE) 04:51:51 145.825
STARS 06 May 04:48:43 04:52:41 32° 262° (W) 04:56:41 437.465
AO-7 06 May 04:50:58 04:59:20 85° 290° (WNW) 05:07:42 29.400- 29.500
MOZHAYETS 4 06 May 05:14:23 05:16:57 15° 267° (W) 05:19:32
CUBESAT XI-V 06 May 05:30:20 05:34:55 79° 78° (ENE) 05:39:33 437.345
YUBILEINY 06 May 05:55:22 06:04:06 76° 83° (E) 06:12:50 435.215
AIST 2 06 May 05:57:04 06:00:32 26° 248° (WSW) 06:03:57 435.215
CUTE-I 06 May 05:59:46 06:03:11 17° 94° (E) 06:06:36 437.470
SO-50 06 May 06:03:13 06:08:06 83° 120° (ESE) 06:13:03 436.795
HORYU 2 06 May 06:04:19 06:08:22 36° 288° (WNW) 06:12:23 437.375
BRITE-PL 06 May 06:13:31 06:18:16 27° 94° (E) 06:22:50 437.365/2234.400
RS-15 06 May 06:16:42 06:29:01 68° 58° (ENE) 06:41:12 29.354- 29.394
ISS 06 May 06:22:47 06:25:33 25° 324° (NW) 06:28:21 145.825
NOAA 15 06 May 06:28:12 06:33:24 53° 100° (E) 06:38:35 137.62
Cosmos 2491 06 May 06:34:33 06:43:22 83° 95° (E) 06:52:15 435.465 / 435.565
STRAND 1 06 May 06:42:47 06:47:27 38° 71° (ENE) 06:52:08 437.568
NOAA 18 06 May 06:43:22 06:48:47 64° 102° (ESE) 06:54:11 137.9125
Cubesat XI-IV 06 May 06:44:00 06:49:09 49° 100° (E) 06:54:17 437.490
AO-7 06 May 06:46:15 06:50:53 16° 305° (NW) 06:55:33 29.400- 29.500
Cosmos 2504 06 May 06:59:17 07:06:51 52° 80° (E) 07:14:56 435.465 / 435.565
GOMX 1 06 May 07:05:27 07:10:29 41° 97° (E) 07:15:12 467.674
LilacSat-2 06 May 07:14:25 07:18:10 64° 283° (WNW) 07:21:52 437.200
CUTE-I 06 May 07:38:20 07:43:26 48° 287° (WNW) 07:48:31 437.470
PHONESAT 2.4 06 May 07:41:08 07:44:10 49° 151° (SSE) 07:47:13 2401.200-2431.200
SO-50 06 May 07:47:10 07:49:11 12° 314° (NW) 07:51:12 436.795
M-CUBED/EXP-1 PRIME 06 May 07:50:31 07:54:11 57° 104° (ESE) 07:57:34 437.505
BRITE-PL 06 May 07:51:36 07:56:40 34° 289° (WNW) 08:01:32 437.365/2234.400
YUBILEINY 06 May 07:54:32 07:59:50 18° 279° (W) 08:05:08 435.215
CUTE 1.7 + AOD 2 06 May 07:58:50 08:01:35 17° 94° (E) 08:04:20 437.475
AUBIESAT-1 06 May 08:05:40 08:09:21 75° 106° (ESE) 08:12:47 437.475
NOAA 15 06 May 08:09:27 08:12:42 17° 295° (WNW) 08:15:55 137.62
COMPASS 1 06 May 08:15:49 08:17:44 13° 93° (E) 08:19:38 437.405
SEEDS 06 May 08:18:35 08:21:46 21° 95° (E) 08:24:57 437.485
DOVE 4 06 May 08:19:39 08:24:37 68° 284° (WNW) 08:29:15 437.250
STRAND 1 06 May 08:23:00 08:26:42 20° 265° (W) 08:30:23 437.568
PRISM 06 May 08:23:28 08:27:31 89° 257° (WSW) 08:31:38 437.425
Cubesat XI-IV 06 May 08:25:20 08:28:47 18° 294° (WNW) 08:32:15 437.490
NOAA 18 06 May 08:26:00 08:28:50 15° 297° (WNW) 08:31:41 137.9125
RS-15 06 May 08:30:29 08:40:34 31° 257° (WSW) 08:50:34 29.354- 29.394
CINEMA 3 06 May 08:34:31 08:38:52 48° 99° (E) 08:43:00 145.822/145.860
Cosmos 2491 06 May 08:35:47 08:41:10 17° 292° (WNW) 08:46:36 435.465 / 435.565
AAUSAT CUBESAT 2 06 May 08:41:35 08:44:47 21° 96° (E) 08:47:59 437.432
GOMX 1 06 May 08:44:19 08:48:09 20° 293° (WNW) 08:51:50 467.674
HO-68 06 May 08:52:21 08:59:31 72° 104° (ESE) 09:06:38 435.675
Cosmos 2504 06 May 08:53:33 08:59:47 27° 274° (W) 09:06:21 435.465 / 435.565
CUBEBUG 2 06 May 08:55:38 08:59:01 23° 96° (E) 09:02:20 437.445
CANX-2 06 May 09:01:17 09:05:29 67° 284° (WNW) 09:09:41 2200.000
ZACube-1 06 May 09:03:08 09:04:32 11° 92° (E) 09:05:56 437.345
ANTELSAT 06 May 09:10:52 09:12:18 11° 66° (ENE) 09:13:43 437.575/2403.000
PHONESAT 2.4 06 May 09:18:13 09:21:05 33° 345° (NNW) 09:23:59 2401.200-2431.200
DELFI C3 06 May 09:24:39 09:25:36 11° 93° (E) 09:26:32 145.870
CUTE 1.7 + AOD 2 06 May 09:33:42 09:37:26 31° 287° (WNW) 09:41:10 437.475
Oscar 11 06 May 09:35:09 09:39:09 36° 98° (E) 09:43:07 145.826/435.025
GONETS M04 06 May 09:47:31 09:51:18 13° 65° (ENE) 09:55:04
COMPASS 1 06 May 09:49:32 09:53:24 39° 286° (WNW) 09:57:18 437.405
FUNcube-1 06 May 09:52:30 09:56:31 47° 99° (E) 10:00:29 145.935
SEEDS 06 May 09:53:57 09:57:23 25° 289° (WNW) 10:00:50 437.485
UNISAT 6 06 May 10:01:59 10:06:24 44° 74° (ENE) 10:10:44 437.425
CINEMA 3 06 May 10:13:36 10:15:28 12° 294° (WNW) 10:17:18 145.822/145.860
UWE-3 06 May 10:15:29 10:19:33 50° 286° (WNW) 10:23:33 435.000/436.395/437.385
AAUSAT CUBESAT 2 06 May 10:16:50 10:20:10 24° 289° (WNW) 10:23:29 437.432
TIGRISAT 06 May 10:17:53 10:22:29 64° 76° (ENE) 10:27:00 435.000
CUBEBUG 2 06 May 10:32:15 10:35:31 22° 290° (WNW) 10:38:44 437.445
NANOSAT C BR1 06 May 10:32:33 10:35:05 16° 68° (ENE) 10:37:37 145.865
ZACube-1 06 May 10:37:05 10:41:01 42° 286° (WNW) 10:44:54 437.345
HO-68 06 May 10:41:47 10:46:28 19° 299° (WNW) 10:51:10 435.675
ANTELSAT 06 May 10:43:53 10:48:29 60° 259° (W) 10:53:00 437.575/2403.000
Cosmos 2499 06 May 10:54:34 11:00:26 22° 73° (ENE) 11:06:33 435.465 / 435.565
PHONESAT 2.4 06 May 10:55:54 10:58:27 22° 2° (N) 11:00:59 2401.200-2431.200
DELFI C3 06 May 10:56:50 11:00:37 42° 286° (WNW) 11:04:25 145.870
HUMSAT D 06 May 11:04:58 11:09:04 90° 107° (ESE) 11:13:09 437.325/437.525
VELOX 1 06 May 11:11:20 11:11:57 10° 92° (E) 11:12:34 145.980
Oscar 11 06 May 11:12:24 11:14:56 16° 292° (WNW) 11:17:29 145.826/435.025
50 SAT 06 May 11:20:33 11:22:32 14° 94° (E) 11:24:32 437.505
DUCHIFAT 1 06 May 11:21:06 11:25:16 56° 75° (ENE) 11:29:27 145.980
AO-85 06 May 11:24:44 11:30:07 68° 115° (ESE) 11:35:32 145.980
JAS-2 06 May 11:26:00 11:27:59 11° 57° (ENE) 11:30:01 435.910
QB50P2 06 May 11:27:08 11:31:25 81° 77° (ENE) 11:35:42 145.880/145.840
POLYITAN 1 06 May 11:29:20 11:33:38 82° 75° (ENE) 11:37:56 437.675
POPSAT HIP 1 06 May 11:30:49 11:35:06 83° 77° (ENE) 11:39:24 437.405
FUNcube-1 06 May 11:31:05 11:32:18 11° 293° (WNW) 11:33:29 145.935
QB50P1 06 May 11:33:38 11:37:55 89° 247° (WSW) 11:42:14 145.935-145.965
AIST 1 06 May 11:34:15 11:38:39 67° 265° (W) 11:42:59
GONETS M04 06 May 11:40:38 11:49:25 83° 84° (E) 11:58:06
UNISAT 6 06 May 11:40:47 11:43:14 14° 266° (W) 11:45:41 437.425
AISAT 06 May 11:41:11 11:44:57 27° 97° (E) 11:48:42 437.250
BUGSAT 1 06 May 11:45:52 11:49:57 50° 75° (ENE) 11:54:06 437.445
CUBEBUG 1 06 May 12:05:59 12:10:19 50° 100° (E) 12:14:35 437.445
NANOSAT C BR1 06 May 12:06:33 12:10:28 36° 262° (W) 12:14:25 145.865
Oscar 19 06 May 12:12:22 12:15:01 14° 64° (ENE) 12:17:41 437.125/150
ESTCUBE 1 06 May 12:15:52 12:20:26 83° 283° (WNW) 12:24:58 437.505/2401.250
UKube-1 06 May 12:25:39 12:29:57 60° 101° (E) 12:34:13 .
DX 1 06 May 12:26:49 12:31:12 79° 101° (E) 12:35:35 434.975-435.025
PHONESAT 2.4 06 May 12:32:43 12:35:44 42° 18° (NNE) 12:38:45 2401.200-2431.200
Gurwin Techsat 1B 06 May 12:41:49 12:42:41 10° 62° (ENE) 12:43:32 435.225
VELOX 1 06 May 12:44:20 12:48:42 55° 285° (WNW) 12:53:03 145.980
Cosmos 2499 06 May 12:46:03 12:53:56 66° 267° (W) 13:02:23 435.465 / 435.565
SPROUT 06 May 12:47:51 12:52:04 56° 100° (E) 12:56:14 437.525
ISS 06 May 12:53:05 12:56:17 50° 41° (NE) 12:59:27 145.825
50 SAT 06 May 12:53:12 12:56:20 27° 287° (WNW) 12:59:27 437.505
JAS-2 06 May 13:05:44 13:11:41 83° 75° (ENE) 13:18:31 435.910
TISAT 1 06 May 13:07:04 13:10:28 23° 96° (E) 13:13:50 437.305
AO-85 06 May 13:07:33 13:11:05 17° 312° (NW) 13:14:37 145.980
AISAT 06 May 13:17:48 13:21:16 22° 290° (WNW) 13:24:42 437.250
BUGSAT 1 06 May 13:24:56 13:25:34 10° 268° (W) 13:26:12 437.445
ITAMSAT 1 06 May 13:39:31 13:42:38 16° 65° (ENE) 13:45:43 435.822/435.867
GONETS M04 06 May 13:40:20 13:45:00 16° 281° (W) 13:49:42
CUBEBUG 1 06 May 13:44:18 13:46:06 12° 294° (WNW) 13:47:54 437.445
Oscar 19 06 May 13:48:41 13:53:46 59° 259° (W) 13:58:55 437.125/150
AO-7 06 May 13:56:46 14:01:45 18° 55° (NE) 14:06:43 29.400- 29.500
PCSat 06 May 14:03:52 14:08:50 39° 109° (ESE) 14:13:51 145.827
BEESAT 06 May 14:04:42 14:08:01 19° 95° (E) 14:11:19 436.000
PHONESAT 2.4 06 May 14:09:41 14:12:32 31° 213° (SSW) 14:15:22 2401.200-2431.200
Gurwin Techsat 1B 06 May 14:16:33 14:21:51 83° 257° (WSW) 14:27:12 435.225
O/OREOS (USA 219) 06 May 14:16:44 14:21:15 59° 291° (WNW) 14:25:48 437.305
SPROUT 06 May 14:26:48 14:27:28 10° 294° (WNW) 14:28:09 437.525
CUSAT 1 06 May 14:27:28 14:30:49 45° 92° (E) 14:35:10 437.405
ISS 06 May 14:31:32 14:32:21 11° 234° (SW) 14:33:11 145.825
SO-50 06 May 14:39:19 14:43:12 25° 53° (NE) 14:46:58 436.795
TISAT 1 06 May 14:42:43 14:45:59 22° 290° (WNW) 14:49:14 437.305
JAS-2 06 May 14:55:52 14:57:42 11° 273° (W) 14:59:36 435.910
ITUPSAT 1 06 May 15:01:20 15:06:08 80° 103° (ESE) 15:10:55 437.325
SWISSCUBE 06 May 15:08:28 15:13:14 75° 284° (WNW) 15:18:00 437.505
ITAMSAT 1 06 May 15:16:36 15:21:38 51° 260° (W) 15:26:40 435.822/435.867
MOZHAYETS 4 06 May 15:36:00 15:38:11 13° 93° (E) 15:40:21
BEESAT 06 May 15:41:30 15:45:51 36° 288° (WNW) 15:50:10 436.000
AO-7 06 May 15:45:06 15:53:24 89° 253° (WSW) 16:01:44 29.400- 29.500
PCSat 06 May 15:47:55 15:52:18 25° 305° (NW) 15:56:44 145.827
DANDE 06 May 15:49:28 15:52:13 36° 284° (WNW) 15:55:37 436.750
JUGNU 06 May 16:03:11 16:06:46 17° 170° (S) 16:10:22 437.505
